Home   Weather   Melbourne Manor   Past weeks
Flag for USA

Past Weather in Melbourne Manor, Delaware, USA — Yesterday and Last 2 Weeks

Now
80 °F

Sunny.


Feels Like: 79 °F
Forecast: 80 / 66 °F
Wind: 16 mph from Northwest

Location: Dover Air Force Base

Current Time: May 24, 2019 at 5:11:31 pm

Latest Report: May 24, 2019 at 3:56 pm


Visibility: 10 mi

Pressure: 29.99 "Hg

Humidity: 35%

Dew Point: 50 °F

Location of Melbourne ManorLocation

Past Weather in Melbourne Manor — Graph

°F

Melbourne Manor Temperature Yesterday

Maximum temperature yesterday: 82 °F (at 12:55 pm)
Minimum temperature yesterday: 58 °F (at 3:56 am)
Average temperature yesterday: 68 °F

High & Low Weather Summary for the Past Weeks

 TemperatureHumidityPressure
High87 °F (May 20, 2:56 pm)100% (May 9, 10:37 pm)30.29 "Hg (May 9, 10:37 pm)
Low45 °F (May 15, 5:56 am)29% (May 22, 10:56 am)29.74 "Hg (May 12, 1:56 pm)
Average63 °F74%29.94 "Hg
* Reported May 9 2:56 pm — May 24 2:56 pm, Melbourne Manor. Weather by CustomWeather, © 2019

Note: Actual official high and low records may vary slightly from our data, if they occured in-between our weather recording intervals... More about our weather records

Advertising

Melbourne Manor Weather History for the Previous 24 Hours

Scroll right to see more
 ConditionsComfort  
Time TempWeatherWind HumidityBarometerVisibility
2:56 pm
Fri, May 24
79 °FSunny.17 mph36%29.99 "Hg10 mi
1:56 pm79 °FSunny.20 mph36%29.98 "Hg10 mi
12:56 pm78 °FPassing clouds.20 mph37%29.99 "Hg10 mi
11:56 am76 °FSunny.20 mph42%29.98 "Hg10 mi
10:56 am73 °FSunny.14 mph47%29.98 "Hg10 mi
9:56 am73 °FSunny.14 mph47%29.98 "Hg10 mi
8:56 am73 °FSunny.13 mph48%29.97 "Hg10 mi
7:56 am72 °FSunny.20 mph49%29.96 "Hg10 mi
6:56 am71 °FSunny.14 mph66%29.94 "Hg10 mi
5:56 am71 °FPartly sunny.10 mph85%29.92 "Hg10 mi
4:56 am71 °FPassing clouds.3 mph93%29.89 "Hg10 mi
3:56 am71 °FClear.7 mph94%29.88 "Hg10 mi
2:56 am72 °FPassing clouds.8 mph93%29.89 "Hg10 mi
2:23 am73 °FPassing clouds.9 mph89%29.89 "Hg10 mi
1:56 am72 °FPassing clouds.10 mph92%29.89 "Hg10 mi
12:56 am71 °FClear.12 mph93%29.91 "Hg10 mi
11:56 pm
Thu, May 23
71 °FClear.12 mph91%29.92 "Hg10 mi
10:56 pm69 °FClear.10 mph90%29.94 "Hg10 mi
9:56 pm69 °FClear.12 mph90%29.95 "Hg10 mi
8:56 pm68 °FClear.14 mph91%29.95 "Hg10 mi
7:56 pm69 °FSunny.13 mph89%29.97 "Hg10 mi
6:56 pm71 °FScattered clouds.12 mph86%29.95 "Hg10 mi
6:30 pm73 °FBroken clouds.18 mph94%29.95 "Hg10 mi
5:56 pm73 °FLight rain. Broken clouds.16 mph92%29.96 "Hg10 mi
5:38 pm73 °FThundershowers. Overcast.14 mph89%30.00 "Hg6 mi
5:05 pm79 °FThunderstorms. Broken clouds.16 mph65%30.01 "Hg5 mi
Weather by CustomWeather, © 2019

See weather overview